• In Hungary
  • List of Countries
  • For 7 days
  • Water Temperature
  • Satellite Maps
  • Weather Map
  • News
  • Weather Widgets
  • user-avatar
    Login

    Hourly Weather Kitaevo

    Today, 24 October, Wednesday

    Time Temperature Precipitation Wind Pressure Humidity
    00:00 +3°C° 0.2 mm 5 mps 728 mmHg 78%
    01:00 +3°C° 0.2 mm 5 mps 727 mmHg 78%
    02:00 +3°C° 0.2 mm 5 mps 726 mmHg 79%
    03:00 +3°C° 0.2 mm 5 mps 725 mmHg 80%
    04:00 +3°C° 0.2 mm 5 mps 724 mmHg 81%
    05:00 +3°C° 0.2 mm 5 mps 723 mmHg 82%
    06:00 +3°C° 0.5 mm 6 mps 722 mmHg 84%
    07:00 +4°C° 0.5 mm 6 mps 722 mmHg 85%
    08:00 +4°C° 0.5 mm 6 mps 721 mmHg 86%
    09:00 +5°C° 0.1 mm 6 mps 721 mmHg 84%
    10:00 +6°C° 0.1 mm 5 mps 720 mmHg 82%
    11:00 +7°C° 0.1 mm 5 mps 720 mmHg 80%
    12:00 +7°C° 0.2 mm 4 mps 719 mmHg 80%
    13:00 +7°C° 0.2 mm 4 mps 719 mmHg 80%
    14:00 +8°C° 0.2 mm 3 mps 719 mmHg 80%
    15:00 +7°C° 0.7 mm 3 mps 719 mmHg 84%
    16:00 +6°C° 0.7 mm 2 mps 719 mmHg 88%
    17:00 +7°C° 0.7 mm 1 mps 719 mmHg 92%
    18:00 +6°C° 1.4 mm 2 mps 719 mmHg 92%
    19:00 +5°C° 1.4 mm 3 mps 719 mmHg 93%
    20:00 +4°C° 1.4 mm 3 mps 718 mmHg 93%
    21:00 +4°C° 0.6 mm 3 mps 719 mmHg 93%
    22:00 +4°C° 0.6 mm 3 mps 719 mmHg 93%
    23:00 +4°C° 0.6 mm 4 mps 719 mmHg 93%

    Tomorrow, 25 October, Thursday

    Time Temperature Precipitation Wind Pressure Humidity
    00:00 +4°C° 0.3 mm 3 mps 719 mmHg 93%
    01:00 +4°C° 0.3 mm 3 mps 719 mmHg 94%
    02:00 +4°C° 0.3 mm 3 mps 719 mmHg 94%
    03:00 +4°C° 0.2 mm 3 mps 719 mmHg 93%
    04:00 +4°C° 0.2 mm 4 mps 719 mmHg 92%
    05:00 +4°C° 0.2 mm 4 mps 719 mmHg 91%
    06:00 +4°C° 0.2 mm 4 mps 720 mmHg 89%
    07:00 +3°C° 0.2 mm 5 mps 720 mmHg 87%
    08:00 +3°C° 0.2 mm 5 mps 720 mmHg 85%
    09:00 +3°C° 0.4 mm 6 mps 721 mmHg 83%
    10:00 +3°C° 0.4 mm 6 mps 721 mmHg 81%
    11:00 +3°C° 0.4 mm 7 mps 721 mmHg 78%
    12:00 +3°C° 0.5 mm 7 mps 722 mmHg 77%
    13:00 +3°C° 0.5 mm 7 mps 722 mmHg 76%
    14:00 +2°C° 0.5 mm 7 mps 723 mmHg 75%
    15:00 +2°C° 0.2 mm 6 mps 723 mmHg 76%
    16:00 +2°C° 0.2 mm 5 mps 724 mmHg 76%
    17:00 +2°C° 0.2 mm 5 mps 725 mmHg 77%
    18:00 +1°C° 0 mm 5 mps 725 mmHg 78%
    19:00 +1°C° 0 mm 4 mps 726 mmHg 79%
    20:00 0°C° 0 mm 4 mps 726 mmHg 80%
    21:00 0°C° 0 mm 4 mps 726 mmHg 80%
    22:00 +1°C° 0 mm 3 mps 727 mmHg 80%
    23:00 +1°C° 0 mm 3 mps 727 mmHg 80%

    Day after tomorrow, 26 October, Friday

    Time Temperature Precipitation Wind Pressure Humidity
    00:00 +1°C° 0 mm 3 mps 727 mmHg 79%
    01:00 +1°C° 0 mm 3 mps 728 mmHg 79%
    02:00 +1°C° 0 mm 3 mps 728 mmHg 78%
    03:00 +1°C° 0 mm 3 mps 729 mmHg 80%
    04:00 +1°C° 0 mm 3 mps 729 mmHg 81%
    05:00 +1°C° 0 mm 3 mps 729 mmHg 83%
    06:00 +1°C° 0 mm 3 mps 730 mmHg 81%
    07:00 +1°C° 0 mm 3 mps 730 mmHg 79%
    08:00 0°C° 0 mm 4 mps 730 mmHg 76%
    09:00 +1°C° 0 mm 4 mps 730 mmHg 72%
    10:00 +3°C° 0 mm 4 mps 731 mmHg 68%
    11:00 +3°C° 0 mm 5 mps 731 mmHg 64%
    12:00 +3°C° 0.1 mm 5 mps 731 mmHg 65%
    13:00 +3°C° 0.1 mm 5 mps 731 mmHg 67%
    14:00 +5°C° 0.1 mm 5 mps 731 mmHg 68%
    15:00 +3°C° 0.3 mm 5 mps 731 mmHg 72%
    16:00 +4°C° 0.3 mm 4 mps 732 mmHg 77%
    17:00 +3°C° 0.3 mm 4 mps 732 mmHg 81%
    18:00 +3°C° 0.4 mm 4 mps 732 mmHg 83%
    19:00 +3°C° 0.4 mm 4 mps 733 mmHg 85%
    20:00 +1°C° 0.4 mm 4 mps 733 mmHg 87%
    21:00 +1°C° 0 mm 4 mps 734 mmHg 89%
    22:00 +1°C° 0 mm 3 mps 734 mmHg 91%
    23:00 0°C° 0 mm 3 mps 734 mmHg 93%

    27 October, Saturday

    Time Temperature Precipitation Wind Pressure Humidity
    00:00 0°C° 0 mm 3 mps 735 mmHg 93%
    01:00 0°C° 0 mm 3 mps 735 mmHg 93%
    02:00 0°C° 0 mm 3 mps 735 mmHg 93%
    03:00 -1°C° 0 mm 4 mps 735 mmHg 92%
    04:00 -1°C° 0 mm 4 mps 735 mmHg 91%
    05:00 0°C° 0 mm 5 mps 735 mmHg 90%
    06:00 0°C° 0.1 mm 5 mps 734 mmHg 88%
    07:00 +1°C° 0.1 mm 6 mps 734 mmHg 85%
    08:00 +2°C° 0.1 mm 7 mps 733 mmHg 83%
    09:00 +2°C° 0.2 mm 8 mps 733 mmHg 82%
    10:00 +3°C° 0.2 mm 9 mps 732 mmHg 80%
    11:00 +5°C° 0.2 mm 9 mps 731 mmHg 79%
    12:00 +5°C° 0.6 mm 9 mps 731 mmHg 80%
    13:00 +5°C° 0.6 mm 9 mps 730 mmHg 81%
    14:00 +6°C° 0.6 mm 9 mps 730 mmHg 81%
    15:00 +5°C° 0.6 mm 8 mps 730 mmHg 79%
    16:00 +5°C° 0.6 mm 8 mps 730 mmHg 76%
    17:00 +5°C° 0.6 mm 7 mps 730 mmHg 73%
    18:00 +4°C° 0 mm 8 mps 731 mmHg 73%
    19:00 +4°C° 0 mm 8 mps 732 mmHg 73%
    20:00 +2°C° 0 mm 8 mps 732 mmHg 74%
    21:00 +1°C° 0 mm 8 mps 733 mmHg 74%
    22:00 +2°C° 0 mm 7 mps 734 mmHg 75%
    23:00 0°C° 0 mm 7 mps 735 mmHg 76%

    28 October, Sunday

    Time Temperature Precipitation Wind Pressure Humidity
    00:00 +1°C° 0 mm 6 mps 736 mmHg 77%
    01:00 -1°C° 0 mm 6 mps 737 mmHg 78%
    02:00 0°C° 0 mm 5 mps 738 mmHg 80%
    03:00 -1°C° 0 mm 5 mps 739 mmHg 82%
    04:00 -1°C° 0 mm 4 mps 740 mmHg 84%
    05:00 -2°C° 0 mm 4 mps 740 mmHg 87%
    06:00 -1°C° 0 mm 4 mps 741 mmHg 85%
    07:00 -1°C° 0 mm 4 mps 742 mmHg 84%
    08:00 -1°C° 0 mm 4 mps 743 mmHg 82%
    09:00 0°C° 0 mm 4 mps 743 mmHg 76%
    10:00 +1°C° 0 mm 4 mps 744 mmHg 71%
    11:00 +4°C° 0 mm 4 mps 745 mmHg 65%
    12:00 +4°C° 0 mm 3 mps 745 mmHg 64%
    13:00 +4°C° 0 mm 3 mps 745 mmHg 64%
    14:00 +4°C° 0 mm 3 mps 746 mmHg 63%
    15:00 +5°C° 0 mm 2 mps 746 mmHg 68%
    16:00 +4°C° 0 mm 2 mps 746 mmHg 73%
    17:00 +4°C° 0 mm 1 mps 747 mmHg 78%
    18:00 +3°C° 0 mm 1 mps 747 mmHg 79%
    19:00 +3°C° 0 mm 1 mps 747 mmHg 79%
    20:00 +2°C° 0 mm 0 mps 748 mmHg 80%
    21:00 +3°C° 0 mm 1 mps 748 mmHg 80%
    22:00 +3°C° 0 mm 1 mps 748 mmHg 79%
    23:00 +3°C° 0 mm 1 mps 748 mmHg 79%

    29 October, Monday

    Time Temperature Precipitation Wind Pressure Humidity
    00:00 +2°C° 0.1 mm 2 mps 748 mmHg 79%
    01:00 +2°C° 0.1 mm 2 mps 748 mmHg 78%
    02:00 +2°C° 0.1 mm 2 mps 749 mmHg 78%
    03:00 +1°C° 0.5 mm 3 mps 748 mmHg 79%
    04:00 +1°C° 0.5 mm 3 mps 748 mmHg 80%
    05:00 +1°C° 0.5 mm 3 mps 748 mmHg 81%
    06:00 0°C° 1.1 mm 4 mps 748 mmHg 83%
    07:00 0°C° 1.1 mm 4 mps 748 mmHg 86%
    08:00 0°C° 1.1 mm 5 mps 748 mmHg 88%
    09:00 -1°C° 0.8 mm 5 mps 747 mmHg 90%
    10:00 -2°C° 0.8 mm 6 mps 747 mmHg 91%
    11:00 -2°C° 0.8 mm 6 mps 747 mmHg 92%
    12:00 -2°C° 0.8 mm 6 mps 746 mmHg 93%
    13:00 -2°C° 0.8 mm 6 mps 746 mmHg 93%
    14:00 -2°C° 0.8 mm 6 mps 745 mmHg 94%
    15:00 -2°C° 0.7 mm 6 mps 745 mmHg 94%
    16:00 -2°C° 0.7 mm 6 mps 745 mmHg 94%
    17:00 -2°C° 0.7 mm 6 mps 744 mmHg 94%
    18:00 -2°C° 0.8 mm 6 mps 744 mmHg 95%
    19:00 -1°C° 0.8 mm 5 mps 743 mmHg 96%
    20:00 0°C° 0.8 mm 5 mps 743 mmHg 96%
    21:00 0°C° 1.1 mm 5 mps 742 mmHg 97%
    22:00 0°C° 1.1 mm 5 mps 742 mmHg 97%
    23:00 0°C° 1.1 mm 5 mps 741 mmHg 97%

    30 October, Tuesday

    Time Temperature Precipitation Wind Pressure Humidity
    00:00 0°C° 2 mm 5 mps 741 mmHg 97%
    01:00 0°C° 2 mm 4 mps 741 mmHg 97%
    02:00 0°C° 2 mm 4 mps 740 mmHg 97%
    03:00 0°C° 0.9 mm 5 mps 740 mmHg 96%
    04:00 -1°C° 0.9 mm 5 mps 740 mmHg 95%
    05:00 -2°C° 0.9 mm 6 mps 740 mmHg 94%
    06:00 -1°C° 0.2 mm 5 mps 741 mmHg 93%
    07:00 -1°C° 0.2 mm 5 mps 741 mmHg 93%
    08:00 -1°C° 0.2 mm 5 mps 742 mmHg 92%
    09:00 -1°C° 0 mm 5 mps 742 mmHg 92%
    10:00 -1°C° 0 mm 5 mps 743 mmHg 91%
    11:00 -1°C° 0 mm 5 mps 743 mmHg 91%
    12:00 -1°C° 0 mm 5 mps 744 mmHg 90%
    13:00 -1°C° 0 mm 5 mps 744 mmHg 90%
    14:00 -1°C° 0 mm 5 mps 745 mmHg 89%
    15:00 -2°C° 0 mm 5 mps 745 mmHg 89%
    16:00 -2°C° 0 mm 5 mps 746 mmHg 89%
    17:00 -2°C° 0 mm 5 mps 747 mmHg 89%
    18:00 -2°C° 0 mm 5 mps 747 mmHg 89%
    19:00 -2°C° 0 mm 5 mps 748 mmHg 89%
    20:00 -2°C° 0 mm 5 mps 748 mmHg 89%
    21:00 -2°C° 0 mm 5 mps 748 mmHg 89%
    22:00 -4°C° 0 mm 5 mps 749 mmHg 89%
    23:00 -4°C° 0 mm 5 mps 749 mmHg 90%
    Show more